Regional Weather Roundup
Issued by NWS Northern Indiana

Home | Current Version | Previous Version | Graphics & Text | Print | Product List | Glossary On
Versions: 1 2 3 4 5 6 7 8 9 10 11 12 13 14 15 16 17 18 19 20 21 22 23 24 25 26 27 28 29 30 31 32 33 34 35 36 37 38 39 40 41 42 43 44 45 46 47 48 49 50
000
ASUS43 KIWX 231301
RWRIWX

KIWX WEATHER ROUNDUP
NATIONAL WEATHER SERVICE NORTHERN INDIANA
900 AM EDT SAT SEP 23 2017

NOTE: "FAIR" INDICATES FEW OR NO CLOUDS BELOW 12,000 FEET WITH NO
SIGNIFICANT WEATHER AND/OR OBSTRUCTIONS TO VISIBILITY.

* THESE STATIONS ARE NOT UNDER NWS QUALITY CONTROL. THEY ALSO MAY NOT
  REPORT WEATHER SUCH AS PRECIPITATION OR FOG.

INZ001>027-231400-
NORTHERN INDIANA

CITY           SKY/WX    TMP DP  RH WIND       PRES   REMARKS
GARY*          MOSUNNY   72  68  88 SE3       30.10R
MICHIGAN CITY* SUNNY     70  70 100 CALM      30.12R
SOUTH BEND     SUNNY     71  69  93 E3        30.13R
ELKHART*       SUNNY     72  66  83 CALM      30.13R FOG
GOSHEN         SUNNY     71  64  78 S3        30.13R HAZE
FORT WAYNE     SUNNY     69  65  86 E3        30.14R FOG

$$
INZ028>050-231400-
CENTRAL INDIANA

CITY           SKY/WX    TMP DP  RH WIND       PRES   REMARKS
LAFAYETTE      SUNNY     69  69 100 CALM      30.11R FOG
KOKOMO*        SUNNY     70  68  93 CALM      30.14R FOG
MUNCIE*        SUNNY     73  67  81 CALM      30.14R
INDIANAPOLIS   SUNNY     72  68  87 CALM      30.12R

$$
MIZ043>046-050>051-056>058-064>065-071>073-077>080-231400-
SOUTHWEST LOWER MICHIGAN

CITY           SKY/WX    TMP DP  RH WIND       PRES   REMARKS
BATTLE CREEK   SUNNY     71  66  84 CALM      30.14R
BENTON HARBOR  SUNNY     74  68  81 CALM      30.11R
COLDWATER*     SUNNY     69  67  95 CALM      30.14R
HILLSDALE*     SUNNY     68  64  88 CALM      30.14S
HOLLAND        SUNNY     73  67  81 S3        30.12R
GRAND RAPIDS   MOSUNNY   74  66  76 CALM      30.12R
KALAMAZOO      SUNNY     72  65  78 CALM      30.13R
STURGIS*       SUNNY     71  65  81 CALM      30.13R
THREE RIVERS*  FAIR      69  68  94 CALM      30.14R FOG

$$
OHZ001>008-015>018-024>025-231400-
NORTHWEST OHIO

CITY           SKY/WX    TMP DP  RH WIND       PRES   REMARKS
DEFIANCE       SUNNY     67  63  87 CALM      30.13R FOG
FINDLAY        SUNNY     70  64  81 S3        30.13R
TOLEDO EXPRESS SUNNY     70  67  90 CALM      30.13R
TOLEDO METCALF SUNNY     69  64  84 N3        30.15R
LIMA           SUNNY     72  67  84 SE3       30.14R

$$
AND FOR LAKE MICHIGAN COASTAL AND OPEN LAKE BUOY OBSERVATIONS

STATION/POSITION TEMP    WIND        PRES    VSBY  WAVE
                 AIR SEA DIR/SP/G                  HT/PER
                 (F)     (DEG/KT/KT) (MB)    (MI)  (FT/S)
CALUMET HARBOR    75     190/  2/  3 1018.3R
MICHIGAN CITY     74      CALM  /  1   N/A
BURNS HARBOR      75     150/  4/  5 1019.6R
SAINT JOSEPH      71     140/  3/  4 1019.6
SOUTH LAKE BUOY   72 70  130/  6/  8 1018.7          0
4 MI NW BRIDGMAN  73 71  250/  2/  4 1019.5R         0
MICHIGAN CITY     73 71  160/  2/  4   N/A           0

$$
&&



USA.gov is the U.S. government's official web portal to all federal, state and local government web resources and services.